Flag for U.S.A. Weather past 2 weeks in Louisville, Kentucky, U.S.A.

47 °F


Feels Like: 42 °F
Forecast: 44 / 49 °F
Wind: 9 mph from Northeast

Location: Standiford Field

Current Time: Nov 29, 2015 at 6:47:23 PM

Latest Report: Nov 29, 2015 at 5:56 PM

Visibility: 9 mi

Pressure: 30.16 "Hg

Humidity: 83%

Dew point: 42 °F

Location of LouisvilleLocation

Historic Weather in Louisville — Graph


Louisville temperature yesterday

Maximum temperature yesterday: 63 °F (at 4:56 AM)
Minimum temperature yesterday: 46 °F (at 10:56 PM)
Average temperature yesterday: 55 °F

Past Weeks' High & Low Weather Summary

High69 °F (Nov 26, 1:56 PM)97% (Nov 18, 12:56 PM)30.53 "Hg (Nov 18, 12:56 PM)
Low27 °F (Nov 23, 1:56 AM)22% (Nov 20, 1:56 PM)29.60 "Hg (Nov 18, 2:56 PM)
Average50 °F61%30.21 "Hg
* Reported Nov 14 4:56 PM — Nov 29 4:56 PM, Louisville, Weather by CustomWeather, © 2015

Note: Actual official high and low records may vary slightly from our data, if they occured in-between our weather recording intervals... More about our weather records


Louisville weather history for previous 24 hours

Time TempWeatherWind HumidityBarometerVisibility
4:56 PM
Sun, Nov 29
48 °FLight rain. Overcast.8 mph83%30.17 "Hg7 mi
3:56 PM48 °FOvercast.10 mph83%30.15 "Hg8 mi
2:56 PM48 °FOvercast.6 mph83%30.15 "Hg7 mi
1:56 PM47 °FLow clouds.10 mph86%30.17 "Hg8 mi
12:56 PM47 °FLow clouds.9 mph86%30.20 "Hg7 mi
11:56 AM46 °FFog.8 mph86%30.21 "Hg6 mi
10:56 AM44 °FFog.9 mph93%30.25 "Hg2 mi
9:56 AM44 °FLow clouds.13 mph89%30.25 "Hg7 mi
8:56 AM44 °FLow clouds.13 mph89%30.25 "Hg9 mi
7:56 AM44 °FLow clouds.8 mph93%30.22 "Hg10 mi
7:04 AM45 °FMostly cloudy.8 mph90%30.19 "Hg9 mi
5:56 AM45 °FDrizzle. Fog.5 mph93%30.22 "Hg5 mi
4:56 AM45 °FMostly cloudy.8 mph93%30.21 "Hg10 mi
3:56 AM45 °FDrizzle. Fog.9 mph93%30.22 "Hg4 mi
3:00 AM45 °FDrizzle. Fog.10 mph93%30.22 "Hg2 mi
1:56 AM46 °FDrizzle. Fog.5 mph93%30.19 "Hg3 mi
12:56 AM46 °FLight rain. Fog.9 mph93%30.21 "Hg4 mi
11:56 PM
Sat, Nov 28
46 °FLight rain. Fog.6 mph93%30.20 "Hg4 mi
10:56 PM46 °FLight rain. Mostly cloudy.9 mph93%30.20 "Hg8 mi
9:56 PM47 °FLight rain. Mostly cloudy.9 mph93%30.21 "Hg10 mi
8:56 PM48 °FLight rain. Mostly cloudy.9 mph89%30.20 "Hg7 mi
7:56 PM48 °FRain. Fog.9 mph93%30.19 "Hg5 mi
Weather by CustomWeather, © 2015

See weather overviewHow to use our weather pages